Location: Splawn
(30.9202°N, 96.9858°W)
Time: 23:04:48
(UTC+00:00)

Transit 2A Rocket - Pass Details

Date: 03 March 2020
Orbit: 589 x 914 km, 66.7° (Epoch: 01 April)

Event Time Altitude Azimuth Distance (km) Brightness Sun altitude
Rises 02:33:42 0° 227° (SW) 2,805 8.4 -27.8°
Reaches altitude 10° 02:36:06 10° 238° (WSW) 1,908 7.6 -28.3°
Maximum altitude 02:39:53 31° 301° (WNW) 1,060 6.2 -29.1°
Enters shadow 02:41:19 25° 336° (NNW) 1,228 6.3 -29.4°
Drops below altitude 10° 02:43:48 10° 4° (N) 1,975 - -29.9°
Sets 02:46:21 0° 14° (NNE) 2,923 - -30.4°
